TimeEDT,TemperatureF,Dew PointF,Humidity,Sea Level PressureIn,VisibilityMPH,Wind Direction,Wind SpeedMPH,Gust SpeedMPH,PrecipitationIn,Events,Conditions,WindDirDegrees,DateUTC
12:55 AM,57.9,52.0,81,29.86,10.0,SE,8.1,-,N/A,,Partly Cloudy,140,2013-04-30 04:55:00
1:55 AM,60.1,51.1,72,29.86,10.0,SSE,8.1,-,N/A,,Clear,150,2013-04-30 05:55:00
2:55 AM,60.1,51.1,72,29.84,10.0,SE,11.5,-,N/A,,Clear,140,2013-04-30 06:55:00
3:55 AM,61.0,52.0,72,29.84,9.0,SSE,12.7,-,0.00,Rain-Thunderstorm,Light Thunderstorms and Rain,150,2013-04-30 07:55:00
4:14 AM,60.8,51.8,72,29.84,10.0,SSE,9.2,-,0.00,Rain,Light Rain,150,2013-04-30 08:14:00
4:55 AM,60.1,52.0,75,29.83,10.0,SE,12.7,-,0.00,,Scattered Clouds,140,2013-04-30 08:55:00
5:02 AM,60.8,51.8,72,29.82,10.0,SE,12.7,-,0.00,Rain-Thunderstorm,Light Rain,140,2013-04-30 09:02:00
5:55 AM,59.0,52.0,78,29.83,10.0,SE,12.7,-,0.03,Thunderstorm,Thunderstorm,140,2013-04-30 09:55:00
6:55 AM,59.0,53.1,81,29.82,10.0,SE,10.4,19.6,0.13,Rain-Thunderstorm,Light Thunderstorms and Rain,130,2013-04-30 10:55:00
7:25 AM,60.8,53.6,77,29.83,10.0,SSE,11.5,-,0.00,,Mostly Cloudy,160,2013-04-30 11:25:00
7:55 AM,60.1,53.1,78,29.84,10.0,SE,16.1,21.9,0.00,,Scattered Clouds,140,2013-04-30 11:55:00
8:11 AM,60.8,53.6,77,29.85,10.0,SE,11.5,21.9,N/A,,Mostly Cloudy,140,2013-04-30 12:11:00
8:55 AM,60.1,53.1,78,29.89,8.0,SE,9.2,-,0.00,Rain,Light Rain,140,2013-04-30 12:55:00
9:12 AM,60.8,53.6,77,29.88,9.0,SSE,9.2,-,0.01,,Overcast,150,2013-04-30 13:12:00
9:21 AM,60.8,53.6,77,29.88,9.0,SE,10.4,-,0.01,,Mostly Cloudy,140,2013-04-30 13:21:00
9:30 AM,60.8,53.6,77,29.89,9.0,SE,12.7,-,0.01,,Mostly Cloudy,130,2013-04-30 13:30:00
9:48 AM,60.8,53.6,77,29.89,9.0,SE,13.8,-,0.01,,Mostly Cloudy,140,2013-04-30 13:48:00
9:55 AM,62.1,54.0,75,29.89,9.0,SE,12.7,-,0.01,,Mostly Cloudy,130,2013-04-30 13:55:00
10:46 AM,62.6,53.6,72,29.87,9.0,SE,15.0,21.9,N/A,,Scattered Clouds,140,2013-04-30 14:46:00
10:55 AM,62.1,54.0,75,29.87,9.0,SE,17.3,23.0,N/A,,Partly Cloudy,140,2013-04-30 14:55:00
11:55 AM,66.9,55.0,66,29.88,10.0,SSE,12.7,23.0,N/A,,Clear,150,2013-04-30 15:55:00
12:55 PM,70.0,55.9,61,29.87,10.0,SE,16.1,-,N/A,,Clear,140,2013-04-30 16:55:00
1:55 PM,73.9,57.0,55,29.85,10.0,SE,13.8,23.0,N/A,,Partly Cloudy,140,2013-04-30 17:55:00
2:55 PM,78.1,57.0,48,29.84,10.0,SSE,13.8,-,N/A,,Partly Cloudy,150,2013-04-30 18:55:00
3:55 PM,79.0,54.0,42,29.84,10.0,South,15.0,24.2,N/A,,Scattered Clouds,180,2013-04-30 19:55:00
4:55 PM,80.6,51.8,37,29.83,10.0,South,17.3,-,N/A,,Scattered Clouds,180,2013-04-30 20:55:00
5:55 PM,79.0,55.0,44,29.84,10.0,South,17.3,-,N/A,,Partly Cloudy,190,2013-04-30 21:55:00
6:55 PM,79.0,55.9,45,29.86,10.0,South,15.0,20.7,N/A,,Clear,190,2013-04-30 22:55:00
7:55 PM,79.0,55.9,45,29.87,10.0,South,10.4,-,N/A,,Clear,180,2013-04-30 23:55:00
8:55 PM,77.0,57.0,50,29.89,10.0,South,6.9,-,N/A,,Partly Cloudy,170,2013-05-01 00:55:00
9:55 PM,75.9,57.0,52,29.92,10.0,SSE,12.7,-,N/A,,Partly Cloudy,160,2013-05-01 01:55:00
10:55 PM,73.9,57.9,57,29.93,10.0,SSE,10.4,-,N/A,,Clear,160,2013-05-01 02:55:00
11:55 PM,75.0,57.9,55,29.94,10.0,South,17.3,24.2,N/A,,Clear,180,2013-05-01 03:55:00